This is the latest recevied weather packets stored in our database for station/object N9CQS-15. If no packets are shown the sender has not sent any weather packets the latest 1 day(s).
| Time | Temp. | Humidity | Pressure | Rain* | Wind** | Luminosity | Snow |
|---|---|---|---|---|---|---|---|
| 1777988341 | 11.11° C | 72% | 1010.1 hPa | 0 mm | 1.79 m/s, 302° | - | - |
| 1777987741 | 11.11° C | 72% | 1010.1 hPa | 0 mm | 2.24 m/s, 327° | - | - |
| 1777987142 | 11.11° C | 69% | 1010 hPa | 0 mm | 2.24 m/s, 317° | - | - |
| 1777986542 | 11.67° C | 70% | 1009.7 hPa | 0 mm | 1.79 m/s, 312° | - | - |
| 1777985941 | 11.67° C | 71% | 1009.4 hPa | 0 mm | 2.24 m/s, 297° | - | - |
| 1777985341 | 11.67° C | 72% | 1008.7 hPa | 0 mm | 1.34 m/s, 17° | - | - |
| 1777984742 | 11.67° C | 80% | 1009.2 hPa | 0 mm | 0 m/s | - | - |
| 1777984142 | 11.67° C | 80% | 1009.6 hPa | - | 0 m/s | - | - |
| 1777983542 | 11.67° C | 80% | 1009.4 hPa | - | 0 m/s | - | - |
| 1777982942 | 11.67° C | 79% | 1009.4 hPa | - | 0 m/s | - | - |
| 1777982342 | 11.67° C | 74% | 1009.3 hPa | 0 mm | 0.45 m/s, 296° | - | - |
| 1777981742 | 11.67° C | 75% | 1009 hPa | 0 mm | 0.89 m/s, 313° | - | - |
| 1777981141 | 12.22° C | 82% | 1008.3 hPa | 0 mm | 0.89 m/s, 320° | - | - |
| 1777980542 | 12.22° C | 85% | 1008.2 hPa | - | 0 m/s | - | - |
| 1777979942 | 12.22° C | 84% | 1008 hPa | - | 0 m/s | - | - |
| 1777979342 | 12.78° C | 82% | 1007.8 hPa | 0 mm | 0.45 m/s, 145° | - | - |
| 1777978742 | 12.78° C | 85% | 1007.2 hPa | 0 mm | 0.89 m/s, 329° | - | - |
| 1777978141 | 12.78° C | 89% | 1006.7 hPa | 0 mm | 1.34 m/s, 307° | - | - |
| 1777977541 | 12.78° C | 91% | 1005.9 hPa | 0 mm | 1.79 m/s, 322° | - | - |
| 1777976942 | 12.78° C | 92% | 1005.5 hPa | 0 mm | 1.79 m/s, 314° | - | - |
| 1777976341 | 12.78° C | 92% | 1005.9 hPa | 0 mm | 1.79 m/s, 345° | - | - |
| 1777975742 | 12.78° C | 93% | 1006 hPa | 0 mm | 1.79 m/s, 311° | - | - |
| 1777975141 | 12.22° C | 93% | 1005.9 hPa | 0 mm | 1.79 m/s, 307° | - | - |
| 1777974542 | 12.22° C | 93% | 1006.2 hPa | 0 mm | 0.45 m/s, 193° | - | - |
| 1777973941 | 12.78° C | 92% | 1005.9 hPa | 0 mm | 0.45 m/s, 195° | - | - |
* Rain latest hour (hover to see other rain measurements)
** Current wind speed in m/s (hover to see current wind gust speed)